TimeCDT,TemperatureF,Dew PointF,Humidity,Sea Level PressureIn,VisibilityMPH,Wind Direction,Wind SpeedMPH,Gust SpeedMPH,PrecipitationIn,Events,Conditions,WindDirDegrees,DateUTC
12:53 AM,75.0,53.1,46,29.81,10.0,SSW,10.4,-,N/A,,Clear,200,2013-05-15 05:53:00
1:53 AM,73.9,53.1,48,29.79,10.0,South,13.8,20.7,N/A,,Clear,180,2013-05-15 06:53:00
2:53 AM,73.9,54.0,50,29.81,10.0,SSW,12.7,23.0,N/A,,Clear,200,2013-05-15 07:53:00
3:53 AM,73.0,54.0,51,29.81,10.0,SSW,12.7,20.7,N/A,,Clear,200,2013-05-15 08:53:00
4:53 AM,71.1,54.0,55,29.82,10.0,SSW,5.8,-,N/A,,Clear,200,2013-05-15 09:53:00
5:53 AM,68.0,54.0,61,29.83,10.0,South,4.6,-,N/A,,Clear,190,2013-05-15 10:53:00
6:53 AM,66.9,55.0,66,29.85,10.0,South,3.5,-,N/A,,Clear,190,2013-05-15 11:53:00
7:53 AM,70.0,55.0,59,29.86,10.0,South,5.8,-,N/A,,Clear,190,2013-05-15 12:53:00
8:53 AM,73.0,55.9,55,29.86,10.0,SW,9.2,-,N/A,,Clear,220,2013-05-15 13:53:00
9:53 AM,78.1,57.0,48,29.86,10.0,SW,11.5,-,N/A,,Clear,230,2013-05-15 14:53:00
10:53 AM,81.0,57.9,45,29.83,10.0,SSW,10.4,-,N/A,,Clear,200,2013-05-15 15:53:00
11:53 AM,82.9,57.9,42,29.83,10.0,South,11.5,-,N/A,,Clear,170,2013-05-15 16:53:00
12:53 PM,86.0,60.1,41,29.83,10.0,SSE,12.7,16.1,N/A,,Clear,150,2013-05-15 17:53:00
1:53 PM,88.0,60.1,39,29.81,10.0,South,12.7,-,N/A,,Clear,170,2013-05-15 18:53:00
2:53 PM,88.0,60.1,39,29.80,10.0,SSE,13.8,-,N/A,,Clear,150,2013-05-15 19:53:00
3:53 PM,87.1,62.1,43,29.78,10.0,South,12.7,19.6,N/A,,Clear,190,2013-05-15 20:53:00
4:53 PM,87.1,63.0,44,29.78,10.0,South,12.7,21.9,N/A,,Partly Cloudy,190,2013-05-15 21:53:00
5:53 PM,82.9,64.0,53,29.78,10.0,South,13.8,20.7,N/A,,Partly Cloudy,190,2013-05-15 22:53:00
6:53 PM,80.1,63.0,56,29.79,10.0,South,13.8,24.2,N/A,,Clear,190,2013-05-15 23:53:00
7:53 PM,77.0,62.1,60,29.79,10.0,SSW,8.1,-,N/A,,Clear,200,2013-05-16 00:53:00
8:53 PM,75.0,63.0,66,29.81,10.0,South,3.5,-,N/A,,Clear,170,2013-05-16 01:53:00
9:53 PM,73.0,63.0,71,29.85,10.0,South,5.8,-,N/A,,Clear,180,2013-05-16 02:53:00
10:53 PM,71.1,64.0,78,29.86,10.0,South,9.2,-,N/A,,Clear,170,2013-05-16 03:53:00
11:53 PM,69.1,63.0,81,29.85,10.0,South,8.1,-,N/A,,Clear,170,2013-05-16 04:53:00